Time,TemperatureF,DewpointF,PressureIn,WindDirection,WindDirectionDegrees,WindSpeedMPH,WindSpeedGustMPH,Humidity,HourlyPrecipIn,Conditions,Clouds,dailyrainin,SoftwareType,DateUTC
2013-01-31 00:05:00,17.0,13.0,29.61,West,260,9.0,11.0,83,0.00,,,0.12,weatherlink.com 1.10,2013-01-31 06:05:00,
2013-01-31 00:20:00,17.0,13.0,29.62,West,266,7.0,11.0,83,0.00,,,0.00,weatherlink.com 1.10,2013-01-31 06:20:00,
2013-01-31 00:35:00,16.9,12.0,29.63,WNW,297,10.0,16.0,82,0.00,,,0.00,weatherlink.com 1.10,2013-01-31 06:35:00,
2013-01-31 00:50:00,16.8,12.0,29.64,West,276,10.0,16.0,82,0.00,,,0.00,weatherlink.com 1.10,2013-01-31 06:50:00,
2013-01-31 01:05:00,16.7,12.0,29.64,NNW,331,10.0,17.0,80,0.00,,,0.00,weatherlink.com 1.10,2013-01-31 07:05:00,
2013-01-31 01:20:00,16.7,12.0,29.64,WNW,294,5.0,10.0,82,0.00,,,0.00,weatherlink.com 1.10,2013-01-31 07:20:00,
2013-01-31 01:35:00,16.6,12.0,29.65,NW,311,10.0,16.0,83,0.00,,,0.00,weatherlink.com 1.10,2013-01-31 07:35:00,
2013-01-31 01:50:00,16.5,12.0,29.66,NW,321,13.0,16.0,81,0.00,,,0.00,weatherlink.com 1.10,2013-01-31 07:50:00,
2013-01-31 02:05:00,16.3,10.0,29.67,NW,311,9.0,19.0,77,0.00,,,0.00,weatherlink.com 1.10,2013-01-31 08:05:00,
2013-01-31 02:20:00,16.2,10.0,29.67,WNW,302,7.0,16.0,76,0.00,,,0.00,weatherlink.com 1.10,2013-01-31 08:20:00,
2013-01-31 02:36:00,16.0,10.0,29.68,WNW,298,8.0,13.0,76,0.00,,,0.00,weatherlink.com 1.10,2013-01-31 08:36:00,
2013-01-31 02:51:00,15.7,10.0,29.68,WNW,290,7.0,16.0,79,0.00,,,0.00,weatherlink.com 1.10,2013-01-31 08:51:00,
2013-01-31 03:05:00,15.7,11.0,29.68,NW,305,5.0,10.0,80,0.00,,,0.00,weatherlink.com 1.10,2013-01-31 09:05:00,
2013-01-31 03:21:00,15.5,10.0,29.68,NW,319,5.0,10.0,79,0.00,,,0.00,weatherlink.com 1.10,2013-01-31 09:21:00,
2013-01-31 03:36:00,15.4,10.0,29.68,WNW,290,5.0,12.0,79,0.00,,,0.00,weatherlink.com 1.10,2013-01-31 09:36:00,
2013-01-31 03:50:00,15.4,10.0,29.69,WNW,295,6.0,15.0,80,0.00,,,0.00,weatherlink.com 1.10,2013-01-31 09:50:00,
2013-01-31 04:05:00,14.7,9.0,29.69,NW,319,5.0,15.0,79,0.00,,,0.00,weatherlink.com 1.10,2013-01-31 10:05:00,
2013-01-31 04:20:00,-999.0,-99.9,29.70,North,-999,-999.0,-999.0,-999,0.00,,,0.00,weatherlink.com 1.10,2013-01-31 10:20:00,
2013-01-31 04:35:00,-999.0,-99.9,29.70,North,-999,-999.0,-999.0,-999,0.00,,,0.00,weatherlink.com 1.10,2013-01-31 10:35:00,
2013-01-31 04:51:00,-999.0,-99.9,29.70,North,-999,-999.0,-999.0,-999,0.00,,,0.00,weatherlink.com 1.10,2013-01-31 10:51:00,
2013-01-31 05:06:00,-999.0,-99.9,29.70,North,-999,-999.0,-999.0,-999,0.00,,,0.00,weatherlink.com 1.10,2013-01-31 11:06:00,
2013-01-31 05:21:00,-999.0,-99.9,29.70,North,-999,-999.0,-999.0,-999,0.00,,,0.00,weatherlink.com 1.10,2013-01-31 11:21:00,
2013-01-31 05:36:00,-999.0,-99.9,29.71,North,-999,-999.0,-999.0,-999,0.00,,,0.00,weatherlink.com 1.10,2013-01-31 11:36:00,
2013-01-31 05:51:00,-999.0,-99.9,29.71,North,-999,-999.0,-999.0,-999,0.00,,,0.00,weatherlink.com 1.10,2013-01-31 11:51:00,
2013-01-31 06:06:00,-999.0,-99.9,29.71,North,-999,-999.0,-999.0,-999,0.00,,,0.00,weatherlink.com 1.10,2013-01-31 12:06:00,
2013-01-31 06:21:00,-999.0,-99.9,29.72,North,-999,-999.0,-999.0,-999,0.00,,,0.00,weatherlink.com 1.10,2013-01-31 12:21:00,
2013-01-31 06:36:00,-999.0,-99.9,29.73,North,-999,-999.0,-999.0,-999,0.00,,,0.00,weatherlink.com 1.10,2013-01-31 12:36:00,
2013-01-31 06:51:00,-999.0,-99.9,29.74,North,-999,-999.0,-999.0,-999,0.00,,,0.00,weatherlink.com 1.10,2013-01-31 12:51:00,
2013-01-31 07:06:00,-999.0,-99.9,29.74,North,-999,-999.0,-999.0,-999,0.00,,,0.00,weatherlink.com 1.10,2013-01-31 13:06:00,
2013-01-31 07:22:00,13.3,7.0,29.76,NW,304,10.0,13.0,77,0.00,,,0.00,weatherlink.com 1.10,2013-01-31 13:22:00,
2013-01-31 07:37:00,13.2,8.0,29.76,West,280,4.0,12.0,78,0.00,,,0.00,weatherlink.com 1.10,2013-01-31 13:37:00,
2013-01-31 07:51:00,13.2,7.0,29.77,NW,314,12.0,16.0,76,0.00,,,0.00,weatherlink.com 1.10,2013-01-31 13:51:00,
2013-01-31 08:07:00,12.9,6.0,29.78,West,260,9.0,12.0,73,0.00,,,0.00,weatherlink.com 1.10,2013-01-31 14:07:00,
2013-01-31 08:22:00,12.8,6.0,29.79,WNW,299,10.0,13.0,73,0.00,,,0.00,weatherlink.com 1.10,2013-01-31 14:22:00,
2013-01-31 08:37:00,12.7,7.0,29.80,WNW,302,7.0,11.0,76,0.00,,,0.00,weatherlink.com 1.10,2013-01-31 14:37:00,
2013-01-31 08:52:00,12.8,7.0,29.80,WNW,299,5.0,13.0,78,0.00,,,0.00,weatherlink.com 1.10,2013-01-31 14:52:00,
2013-01-31 09:07:00,12.9,8.0,29.80,NW,306,5.0,8.0,80,0.00,,,0.00,weatherlink.com 1.10,2013-01-31 15:07:00,
2013-01-31 09:22:00,13.3,8.0,29.81,NW,318,4.0,7.0,80,0.00,,,0.00,weatherlink.com 1.10,2013-01-31 15:22:00,
2013-01-31 09:37:00,13.6,8.0,29.81,West,280,5.0,11.0,79,0.00,,,0.00,weatherlink.com 1.10,2013-01-31 15:37:00,
2013-01-31 09:52:00,13.9,8.0,29.82,WNW,284,10.0,15.0,76,0.00,,,0.00,weatherlink.com 1.10,2013-01-31 15:52:00,
2013-01-31 10:07:00,13.8,7.0,29.82,WNW,302,7.0,14.0,73,0.00,,,0.00,weatherlink.com 1.10,2013-01-31 16:07:00,
2013-01-31 10:23:00,13.9,7.0,29.83,NW,318,11.0,12.0,73,0.00,,,0.00,weatherlink.com 1.10,2013-01-31 16:23:00,
2013-01-31 10:37:00,13.6,6.0,29.84,NW,311,10.0,20.0,73,0.00,,,0.00,weatherlink.com 1.10,2013-01-31 16:37:00,
2013-01-31 10:53:00,13.6,6.0,29.84,WNW,288,9.0,14.0,73,0.00,,,0.00,weatherlink.com 1.10,2013-01-31 16:53:00,
2013-01-31 11:07:00,13.4,7.0,29.85,WNW,287,9.0,15.0,75,0.00,,,0.00,weatherlink.com 1.10,2013-01-31 17:07:00,
2013-01-31 11:23:00,13.2,6.0,29.85,WNW,283,12.0,16.0,73,0.00,,,0.00,weatherlink.com 1.10,2013-01-31 17:23:00,
2013-01-31 11:38:00,13.3,6.0,29.86,West,270,8.0,14.0,72,0.00,,,0.00,weatherlink.com 1.10,2013-01-31 17:38:00,
2013-01-31 11:53:00,12.9,8.0,29.86,WNW,297,5.0,13.0,81,0.00,,,0.00,weatherlink.com 1.10,2013-01-31 17:53:00,
2013-01-31 12:08:00,12.8,6.0,29.87,WNW,294,13.0,17.0,73,0.00,,,0.00,weatherlink.com 1.10,2013-01-31 18:08:00,
2013-01-31 12:23:00,13.0,5.0,29.87,West,274,6.0,17.0,70,0.00,,,0.00,weatherlink.com 1.10,2013-01-31 18:23:00,
2013-01-31 12:38:00,12.8,6.0,29.88,NW,309,10.0,16.0,74,0.00,,,0.00,weatherlink.com 1.10,2013-01-31 18:38:00,
2013-01-31 12:53:00,13.0,6.0,29.88,NW,306,7.0,16.0,73,0.00,,,0.00,weatherlink.com 1.10,2013-01-31 18:53:00,
2013-01-31 13:08:00,12.5,7.0,29.88,West,267,11.0,16.0,77,0.00,,,0.00,weatherlink.com 1.10,2013-01-31 19:08:00,
2013-01-31 13:23:00,12.6,6.0,29.89,NW,314,8.0,14.0,76,0.00,,,0.00,weatherlink.com 1.10,2013-01-31 19:23:00,
2013-01-31 13:38:00,13.0,6.0,29.90,NW,304,7.0,17.0,72,0.00,,,0.00,weatherlink.com 1.10,2013-01-31 19:38:00,
2013-01-31 13:54:00,12.5,4.0,29.90,WNW,298,6.0,16.0,70,0.00,,,0.00,weatherlink.com 1.10,2013-01-31 19:54:00,
2013-01-31 14:08:00,12.7,5.0,29.90,NW,314,14.0,15.0,72,0.00,,,0.00,weatherlink.com 1.10,2013-01-31 20:08:00,
2013-01-31 14:23:00,13.0,6.0,29.90,NW,306,7.0,12.0,73,0.00,,,0.00,weatherlink.com 1.10,2013-01-31 20:23:00,
2013-01-31 14:39:00,12.8,6.0,29.91,West,276,4.0,13.0,75,0.00,,,0.00,weatherlink.com 1.10,2013-01-31 20:39:00,
2013-01-31 14:54:00,12.4,7.0,29.91,NW,309,7.0,13.0,80,0.00,,,0.00,weatherlink.com 1.10,2013-01-31 20:54:00,
2013-01-31 15:09:00,12.4,8.0,29.92,NW,311,5.0,16.0,82,0.00,,,0.00,weatherlink.com 1.10,2013-01-31 21:09:00,
2013-01-31 15:24:00,12.2,8.0,29.93,WNW,300,5.0,13.0,83,0.00,,,0.00,weatherlink.com 1.10,2013-01-31 21:24:00,
2013-01-31 15:39:00,12.1,8.0,29.93,West,269,9.0,12.0,84,0.00,,,0.00,weatherlink.com 1.10,2013-01-31 21:39:00,
2013-01-31 15:54:00,11.9,8.0,29.94,WNW,293,7.0,13.0,84,0.00,,,0.00,weatherlink.com 1.10,2013-01-31 21:54:00,
2013-01-31 16:09:00,11.8,8.0,29.94,NW,311,5.0,12.0,83,0.00,,,0.00,weatherlink.com 1.10,2013-01-31 22:09:00,
2013-01-31 16:24:00,11.6,8.0,29.95,NW,305,4.0,9.0,85,0.00,,,0.00,weatherlink.com 1.10,2013-01-31 22:24:00,
2013-01-31 16:39:00,11.3,8.0,29.96,WNW,297,10.0,10.0,87,0.00,,,0.00,weatherlink.com 1.10,2013-01-31 22:39:00,
2013-01-31 16:54:00,10.7,8.0,29.97,WNW,293,6.0,15.0,88,0.00,,,0.00,weatherlink.com 1.10,2013-01-31 22:54:00,
2013-01-31 17:09:00,10.4,7.0,29.98,NW,309,5.0,14.0,87,0.00,,,0.00,weatherlink.com 1.10,2013-01-31 23:09:00,
2013-01-31 17:24:00,9.9,6.0,29.98,NW,307,6.0,16.0,83,0.00,,,0.00,weatherlink.com 1.10,2013-01-31 23:24:00,
2013-01-31 17:40:00,9.7,5.0,30.00,WNW,297,8.0,12.0,82,0.00,,,0.00,weatherlink.com 1.10,2013-01-31 23:40:00,
2013-01-31 17:54:00,9.5,5.0,30.01,NW,305,7.0,11.0,81,0.00,,,0.00,weatherlink.com 1.10,2013-01-31 23:54:00,
2013-01-31 18:10:00,9.4,5.0,30.02,WNW,293,6.0,12.0,82,0.00,,,0.00,weatherlink.com 1.10,2013-02-01 00:10:00,
2013-01-31 18:25:00,9.3,6.0,30.02,WNW,293,5.0,7.0,85,0.00,,,0.00,weatherlink.com 1.10,2013-02-01 00:25:00,
2013-01-31 18:40:00,9.2,6.0,30.03,WNW,300,7.0,9.0,86,0.00,,,0.00,weatherlink.com 1.10,2013-02-01 00:40:00,
2013-01-31 18:55:00,8.9,6.0,30.04,WSW,249,6.0,10.0,86,0.00,,,0.00,weatherlink.com 1.10,2013-02-01 00:55:00,
2013-01-31 19:10:00,8.9,6.0,30.05,WNW,298,5.0,9.0,87,0.00,,,0.00,weatherlink.com 1.10,2013-02-01 01:10:00,
2013-01-31 19:25:00,8.7,5.0,30.06,NW,309,8.0,12.0,85,0.00,,,0.00,weatherlink.com 1.10,2013-02-01 01:25:00,
2013-01-31 19:40:00,8.4,5.0,30.07,WNW,299,7.0,13.0,84,0.00,,,0.00,weatherlink.com 1.10,2013-02-01 01:40:00,
2013-01-31 19:55:00,8.0,4.0,30.07,NW,309,11.0,13.0,83,0.00,,,0.00,weatherlink.com 1.10,2013-02-01 01:55:00,
2013-01-31 20:10:00,7.6,3.0,30.08,WNW,301,7.0,13.0,80,0.00,,,0.00,weatherlink.com 1.10,2013-02-01 02:10:00,
2013-01-31 20:25:00,7.2,1.0,30.09,West,274,8.0,15.0,74,0.00,,,0.00,weatherlink.com 1.10,2013-02-01 02:25:00,
2013-01-31 20:40:00,7.0,1.0,30.09,WNW,290,5.0,11.0,75,0.00,,,0.00,weatherlink.com 1.10,2013-02-01 02:40:00,
2013-01-31 20:55:00,6.8,1.0,30.10,NW,305,11.0,14.0,75,0.00,,,0.00,weatherlink.com 1.10,2013-02-01 02:55:00,
2013-01-31 21:10:00,6.5,1.0,30.11,NW,308,9.0,14.0,77,0.00,,,0.00,weatherlink.com 1.10,2013-02-01 03:10:00,
2013-01-31 21:26:00,6.1,1.0,30.12,NW,304,6.0,15.0,79,0.00,,,0.00,weatherlink.com 1.10,2013-02-01 03:26:00,
2013-01-31 21:41:00,5.8,0.0,30.12,West,280,6.0,14.0,76,0.00,,,0.00,weatherlink.com 1.10,2013-02-01 03:41:00,
2013-01-31 21:56:00,5.5,-1.0,30.13,WNW,292,3.0,9.0,76,0.00,,,0.00,weatherlink.com 1.10,2013-02-01 03:56:00,
2013-01-31 22:11:00,5.1,0.0,30.14,NW,304,8.0,12.0,78,0.00,,,0.00,weatherlink.com 1.10,2013-02-01 04:11:00,
2013-01-31 22:26:00,4.9,-1.0,30.14,WNW,297,5.0,16.0,76,0.00,,,0.00,weatherlink.com 1.10,2013-02-01 04:26:00,
2013-01-31 22:41:00,4.5,-1.0,30.15,NW,312,6.0,10.0,78,0.00,,,0.00,weatherlink.com 1.10,2013-02-01 04:41:00,
2013-01-31 22:56:00,4.1,-1.0,30.15,West,267,3.0,9.0,78,0.00,,,0.00,weatherlink.com 1.10,2013-02-01 04:56:00,
2013-01-31 23:11:00,3.9,-2.0,30.16,WNW,295,5.0,12.0,78,0.00,,,0.00,weatherlink.com 1.10,2013-02-01 05:11:00,
2013-01-31 23:26:00,3.8,-2.0,30.17,WNW,291,7.0,9.0,78,0.00,,,0.00,weatherlink.com 1.10,2013-02-01 05:26:00,
2013-01-31 23:41:00,3.5,-2.0,30.17,WNW,300,3.0,10.0,77,0.00,,,0.00,weatherlink.com 1.10,2013-02-01 05:41:00,
2013-01-31 23:57:00,3.2,-2.0,30.18,WNW,294,4.0,7.0,78,0.00,,,0.00,weatherlink.com 1.10,2013-02-01 05:57:00,